Location: Libas
(9.8833°N, 125.9833°E)
Time: 10:15:13
(UTC+00:00)

Envisat - Pass Details

Date: 26 January 2021
Orbit: 764 x 766 km, 98.1° (Epoch: 27 February)

Event Time Altitude Azimuth Distance (km) Brightness Sun altitude
Rises 10:03:08 0° 209° (SSW) 3,223 7.0 -6.5°
Reaches altitude 10° 10:07:07 10° 240° (WSW) 2,297 7.1 -7.5°
Maximum altitude 10:08:50 12° 260° (W) 2,183 7.0 -7.9°
Drops below altitude 10° 10:10:32 10° 280° (W) 2,297 6.6 -8.3°
Sets 10:14:33 0° 312° (NW) 3,222 6.7 -9.2°
